Simultaneous Nadir Overpasses (SNOs) Predictions

Prediction of SNOs between AQUA and NPP Satellite Orbit:

Table of predicted SNOs for the next 14.0 days since TLE Epoch: 2/26/2022
Index Date (AQUA) Time (AQUA) Lat,Lon (AQUA) SZA (AQUA ) Date (NPP) Time (NPP) Lat,Lon (NPP) SZA (NPP ) Distance(km) Time Diff (sec)
1 02/26/2022 05:31:54 -76.65, 158.58 74.46 02/26/2022 05:30:48 -76.66, 158.68 74.43 2.64 66
2 02/26/2022 06:21:09 77.16, -31.93 104.93 02/26/2022 06:21:21 77.15, -32.03 104.94 2.89 12
3 02/28/2022 21:48:14 -76.79, -85.03 75.63 02/28/2022 21:47:41 -76.78, -85.08 75.59 1.53 33
4 02/28/2022 22:37:22 77.60, 85.80 103.36 02/28/2022 22:38:06 77.60, 85.77 103.34 0.81 44
5 03/03/2022 13:18:28 66.20,-156.35 114.45 03/03/2022 13:17:15 66.38,-157.56 114.74 58.11 73
6 03/03/2022 14:04:24 -77.37, 33.09 77.36 03/03/2022 14:04:23 -77.37, 33.16 77.38 1.89 1
7 03/03/2022 14:51:42 81.58,-122.01 95.44 03/03/2022 14:52:55 81.21,-121.31 95.23 43.61 73
8 03/06/2022 05:31:33 76.71, -21.10 102.40 03/06/2022 05:30:48 76.71, -21.14 102.45 1.10 45
9 03/06/2022 06:20:40 -77.65, 150.17 78.75 03/06/2022 06:21:12 -77.65, 150.21 78.79 1.03 32
10 03/08/2022 21:47:45 77.13, 96.35 100.85 03/08/2022 21:47:33 77.13, 96.32 100.86 0.55 12
11 03/08/2022 22:36:54 -77.95, -92.57 80.20 03/08/2022 22:37:59 -77.96, -92.49 80.26 1.84 65
12 03/11/2022 13:14:49 -76.75, 43.24 79.76 03/11/2022 13:13:53 -76.75, 43.26 79.72 0.78 56



Historial Predications of SNOs between AQUA and NPP
